Wind_Speed
13 12 11 10 10 10 10 11 11 11 12 12 12 12 13 13 13 14 14 15 15 16 16 17 17 17 17 17 16 16 16 16 16 17 17 18 18 18 19 19 20 20 19
13 12 11 11 11 11 11 11 11 12 12 13 13 13 14 14 14 15 16 16 16 17 17 18 18 18 18 18 18 18 18 18 18 18 18 19 19 19 19 20 20 20 20
14 13 13 12 12 12 12 12 12 12 13 13 13 14 15 15 15 16 16 16 16 17 17 17 18 18 18 18 18 18 18 18 18 18 19 19 19 20 20 20 20 20 20
16 15 14 14 13 13 12 12 13 13 13 14 14 14 15 15 15 15 16 16 17 17 17 17 18 18 18 18 18 19 19 19 19 19 19 20 20 20 20 21 21 21 20
18 17 16 15 14 13 13 13 13 14 14 14 14 14 15 15 15 16 17 17 18 18 18 18 19 19 19 19 19 19 19 19 19 19 20 20 20 21 21 21 21 21 20
19 18 18 17 15 14 14 14 14 14 14 15 15 16 16 17 17 18 18 19 19 19 19 20 20 20 20 20 20 20 20 20 20 20 20 20 21 21 21 21 21 21 21
21 20 19 18 17 16 15 15 15 15 15 16 17 18 18 19 19 20 20 20 20 20 20 20 20 20 21 21 21 21 21 20 20 20 20 20 21 21 21 21 21 21 21
22 22 21 20 19 18 17 16 16 16 17 18 19 20 20 21 21 21 21 21 21 21 21 20 20 20 20 20 20 20 20 20 20 19 20 20 20 20 21 21 21 22 22
24 24 23 22 21 20 19 19 18 19 19 19 20 21 21 22 22 22 22 22 21 21 20 20 19 19 19 19 19 19 19 19 19 19 19 19 20 20 21 21 21 22 22
26 25 25 23 23 22 21 21 21 21 21 22 22 22 22 22 22 22 22 22 22 21 20 19 19 19 19 19 19 19 19 18 18 19 19 19 20 20 21 21 22 22 23
28 27 26 25 24 24 24 24 24 24 24 24 24 24 23 23 23 22 22 22 22 21 20 19 19 19 19 19 19 19 19 19 18 19 19 19 20 20 21 21 22 22 22
29 28 27 26 26 26 25 26 26 26 26 26 26 25 24 24 23 23 23 22 22 21 21 20 20 20 20 20 20 20 20 19 19 19 20 20 20 21 21 21 22 22 23
30 29 28 27 27 27 27 28 28 28 28 28 27 27 26 25 24 24 24 23 23 22 22 22 21 21 21 21 21 21 21 21 20 20 21 21 22 22 22 22 22 23 23
31 30 29 29 28 28 28 29 29 29 29 29 28 28 27 26 26 25 25 25 24 24 24 24 23 23 23 23 23 23 23 22 22 21 22 22 23 23 24 24 24 24 24
32 31 31 30 30 29 30 30 30 30 30 30 29 29 29 28 28 28 27 27 27 27 26 26 26 26 26 26 26 25 25 25 24 24 24 24 24 25 25 25 25 25 25
33 32 32 31 31 31 31 31 31 31 30 30 30 30 30 30 29 29 29 29 29 29 29 29 30 29 29 29 29 29 28 28 27 26 26 26 26 26 27 27 27 27 27
35 34 33 32 32 32 32 32 32 32 31 31 31 31 31 32 32 32 32 32 32 32 32 32 33 33 33 33 32 32 32 31 31 30 28 28 29 29 29 29 29 29 28
36 35 34 34 33 33 33 33 33 33 32 32 32 32 33 34 34 34 34 35 35 36 36 36 36 36 36 36 36 36 35 35 34 33 32 31 31 31 31 31 31 31 30
36 36 35 35 34 35 35 34 34 34 34 34 34 35 35 36 37 37 37 38 38 38 38 39 39 40 40 40 40 39 39 39 39 38 36 35 34 34 34 34 34 33 33
37 37 37 36 36 36 36 36 36 35 36 37 37 37 38 39 39 40 40 41 41 41 42 42 43 43 44 44 44 44 44 43 43 42 41 40 38 37 37 37 36 36 36
38 38 38 37 37 38 38 38 38 37 38 38 39 40 40 41 42 43 43 44 44 45 45 46 47 47 47 48 48 48 48 47 46 45 45 44 43 41 41 40 39 39 39
38 38 39 39 39 39 39 40 40 40 40 40 41 42 43 44 45 45 46 46 47 48 48 49 49 50 50 51 52 52 52 50 49 49 48 48 46 45 43 43 43 43 43
38 39 39 39 39 39 40 41 41 41 41 42 43 44 44 46 46 47 48 49 49 50 51 51 52 53 53 54 55 56 55 54 53 52 51 50 49 48 47 46 46 45 45
38 38 38 38 39 39 40 41 42 42 43 43 44 45 45 46 47 49 50 51 52 52 53 54 55 55 56 57 57 58 58 57 57 55 53 52 52 51 50 49 48 48 48
38 38 38 38 38 39 40 41 42 43 43 44 45 45 46 47 48 49 51 52 53 54 55 56 57 58 59 59 59 59 59 59 59 58 56 55 54 54 53 52 51 51 51
37 37 38 38 38 39 40 41 41 42 43 44 45 46 46 47 48 49 51 52 53 55 57 58 59 60 61 61 62 61 61 61 60 58 58 57 56 55 54 54 53 53 52
Wind_Direction
237 242 246 251 256 261 265 268 271 274 277 280 283 287 291 293 295 297 300 302 303 304 305 305 306 306 306 305 303 302 301 301 301 302 303 305 306 307 308 307 307 306 306
235 240 246 252 257 264 268 271 273 276 279 281 284 287 290 292 295 297 299 301 302 303 304 304 305 305 305 303 302 301 301 301 302 303 303 304 305 306 306 306 306 305 304
238 243 249 255 260 266 270 274 277 278 280 283 286 288 290 292 295 297 299 300 301 303 305 305 305 304 304 303 302 302 301 302 302 303 303 303 303 304 304 304 303 303 302
241 246 252 256 260 265 270 274 278 280 282 284 286 288 290 293 295 298 300 301 302 304 305 305 305 304 304 303 302 301 301 301 301 301 301 301 301 301 302 303 303 302 301
244 249 253 255 258 261 266 271 275 278 281 283 286 288 290 293 296 299 301 301 302 303 304 304 304 303 302 301 300 299 299 299 299 299 300 300 300 301 302 303 303 302 301
246 250 253 255 256 258 262 265 269 273 278 282 286 288 290 293 295 298 299 300 301 302 303 303 303 303 301 300 298 298 297 297 297 298 298 298 299 300 301 302 302 302 300
246 250 252 254 255 256 259 262 265 270 277 283 286 289 291 293 295 297 299 300 301 302 302 303 303 303 303 301 299 298 297 297 297 297 297 298 298 299 301 301 301 301 300
245 249 251 252 254 256 258 261 265 270 276 282 287 290 292 295 297 299 300 301 302 303 303 303 303 303 303 302 301 300 299 298 298 297 297 298 299 299 300 301 301 301 299
244 247 249 252 255 259 261 264 268 273 278 283 287 290 293 295 297 299 300 302 302 303 303 303 303 303 303 303 302 301 301 300 300 300 299 299 299 299 299 300 300 299 299
241 244 248 252 257 262 266 269 272 277 282 285 288 290 292 295 296 298 299 301 301 301 301 301 302 302 301 302 301 301 300 300 300 300 300 300 300 300 300 300 299 299 299
240 243 248 253 259 264 269 273 276 280 284 287 289 290 292 293 295 296 297 298 299 298 298 298 298 298 298 298 298 298 298 298 298 298 299 299 299 299 299 299 299 299 299
241 244 249 255 260 265 270 274 278 282 284 287 289 290 291 292 293 294 294 295 295 295 295 295 295 295 294 295 295 295 295 296 296 296 296 296 296 297 298 298 298 298 298
242 246 251 256 261 266 270 274 278 281 283 285 288 290 291 291 292 292 292 292 292 292 293 292 293 292 292 292 292 292 293 294 294 294 294 294 294 295 296 296 296 296 296
242 247 252 256 261 266 270 274 276 279 282 284 286 289 289 290 291 291 290 290 291 291 291 290 290 290 290 290 290 290 290 291 291 291 292 293 293 294 294 294 294 294 294
243 247 252 257 261 265 269 273 275 278 280 283 285 286 288 289 290 290 290 290 290 290 289 289 288 288 288 288 288 288 288 289 289 289 290 291 291 292 292 293 292 292 292
243 248 252 257 261 265 268 271 274 277 279 280 283 285 286 287 288 289 289 289 290 289 289 288 288 288 287 286 286 286 285 285 286 287 288 288 288 289 289 290 290 291 291
245 249 254 258 262 265 267 270 273 275 278 280 281 283 285 286 287 287 288 288 287 287 287 287 287 287 287 286 285 284 284 284 284 285 285 286 286 287 287 287 288 288 288
247 250 254 258 261 264 267 270 272 275 277 279 281 282 284 285 286 287 287 287 287 286 287 286 286 286 285 284 284 283 283 283 283 282 282 283 283 284 285 285 285 286 286
248 251 254 257 261 264 266 269 272 274 276 278 279 281 283 284 285 286 286 286 286 286 286 285 284 283 283 283 282 282 282 282 281 281 281 280 281 282 282 283 283 283 283
248 252 254 257 260 263 266 268 270 273 275 277 279 281 283 284 285 285 286 285 285 285 285 284 283 282 282 282 281 281 280 280 280 280 280 279 279 279 280 280 281 281 281
249 251 254 257 259 262 265 267 269 271 273 276 279 282 283 284 284 284 284 284 284 284 284 283 283 282 282 281 281 280 279 279 279 280 279 278 278 278 278 278 278 279 279
249 252 255 257 259 262 264 266 268 270 272 275 277 280 281 282 282 283 284 284 284 284 283 283 282 282 281 281 280 280 279 279 279 278 278 278 277 278 278 278 278 278 278
251 252 255 257 259 261 263 265 268 270 273 275 276 278 279 281 282 283 283 283 283 283 282 282 282 281 280 279 279 279 279 278 277 276 277 277 277 277 278 278 278 279 278
252 253 255 257 259 261 263 266 269 271 273 275 276 277 278 279 280 281 282 282 282 283 283 282 281 280 280 279 278 278 278 277 276 276 275 275 276 277 278 278 279 279 279
253 254 256 258 260 262 264 266 269 272 274 275 276 278 278 279 280 281 281 282 282 282 282 282 281 281 280 279 278 277 276 276 275 275 275 274 275 275 276 277 278 280 280
254 256 258 259 261 263 265 267 270 272 274 275 276 278 279 280 281 281 282 282 282 282 282 282 281 281 280 279 277 276 275 274 273 273 273 273 274 274 276 277 277 278 279
Height
5878 5879 5880 5881 5883 5884 5885 5885 5886 5887 5887 5888 5888 5889 5889 5889 5889 5889 5890 5890 5890 5889 5889 5889 5888 5888 5887 5887 5886 5886 5885 5885 5884 5884 5883 5882 5882 5881 5880 5879 5879 5878 5877
5877 5877 5879 5880 5881 5882 5883 5884 5885 5885 5886 5886 5886 5887 5887 5887 5888 5888 5888 5888 5888 5888 5888 5887 5887 5886 5886 5885 5884 5884 5883 5882 5882 5881 5881 5880 5879 5878 5878 5877 5876 5875 5874
5875 5876 5877 5878 5880 5881 5881 5882 5883 5883 5884 5884 5885 5885 5885 5886 5886 5886 5886 5886 5886 5886 5886 5885 5884 5884 5883 5883 5882 5881 5881 5880 5879 5879 5878 5877 5876 5876 5875 5874 5873 5872 5871
5873 5874 5876 5877 5878 5879 5879 5880 5881 5881 5882 5882 5883 5883 5884 5884 5884 5884 5884 5884 5884 5884 5883 5883 5882 5882 5881 5880 5880 5879 5878 5877 5877 5876 5875 5874 5874 5873 5872 5871 5870 5869 5868
5871 5872 5873 5875 5876 5877 5878 5878 5879 5879 5880 5880 5881 5881 5882 5882 5882 5882 5882 5882 5881 5881 5881 5880 5880 5879 5879 5878 5877 5876 5875 5875 5874 5873 5872 5872 5871 5870 5869 5868 5867 5866 5865
5868 5870 5871 5872 5873 5875 5875 5876 5877 5878 5878 5878 5879 5879 5879 5879 5879 5879 5879 5879 5879 5879 5878 5878 5877 5876 5875 5875 5874 5873 5872 5872 5871 5870 5869 5868 5867 5866 5865 5864 5863 5863 5862
5865 5867 5868 5869 5871 5872 5873 5874 5875 5875 5876 5876 5876 5877 5877 5877 5877 5877 5877 5876 5876 5875 5875 5874 5874 5873 5872 5871 5870 5870 5869 5868 5867 5866 5865 5865 5864 5863 5862 5861 5860 5859 5858
5862 5863 5865 5866 5868 5869 5870 5871 5872 5873 5874 5874 5874 5874 5874 5874 5874 5874 5874 5873 5873 5872 5872 5871 5870 5869 5869 5868 5867 5866 5865 5865 5864 5863 5862 5861 5860 5859 5858 5857 5857 5856 5855
5859 5860 5861 5863 5864 5866 5867 5868 5869 5870 5871 5871 5871 5871 5871 5871 5871 5871 5870 5870 5869 5869 5868 5868 5867 5866 5865 5864 5863 5863 5862 5861 5860 5859 5858 5857 5857 5856 5855 5854 5853 5852 5851
5855 5856 5858 5859 5861 5862 5864 5865 5866 5867 5867 5868 5868 5868 5868 5868 5868 5868 5867 5867 5866 5865 5865 5864 5864 5863 5862 5861 5860 5859 5858 5858 5857 5856 5855 5854 5853 5852 5851 5850 5849 5848 5847
5850 5852 5854 5856 5857 5859 5860 5861 5862 5863 5864 5864 5864 5865 5865 5865 5865 5864 5864 5863 5863 5862 5861 5861 5860 5859 5859 5858 5857 5856 5855 5854 5853 5852 5851 5850 5849 5848 5847 5846 5845 5844 5843
5846 5848 5850 5852 5854 5855 5857 5857 5858 5859 5860 5860 5860 5860 5861 5861 5861 5861 5860 5860 5859 5859 5858 5857 5856 5856 5855 5854 5853 5852 5851 5850 5850 5848 5847 5846 5845 5844 5843 5842 5840 5839 5838
5842 5844 5846 5848 5850 5851 5852 5853 5854 5855 5855 5856 5856 5856 5857 5857 5857 5857 5856 5856 5856 5855 5854 5853 5852 5852 5851 5850 5849 5848 5847 5846 5846 5845 5843 5842 5841 5840 5838 5837 5836 5835 5834
5838 5840 5842 5844 5845 5847 5848 5849 5850 5850 5851 5851 5852 5852 5852 5852 5852 5852 5852 5852 5851 5850 5850 5849 5848 5847 5846 5846 5845 5844 5843 5842 5841 5840 5839 5837 5836 5835 5834 5832 5831 5830 5829
5833 5835 5837 5839 5841 5842 5843 5844 5845 5846 5846 5847 5847 5847 5847 5847 5847 5847 5847 5847 5846 5845 5845 5844 5843 5842 5841 5840 5839 5839 5838 5837 5836 5835 5834 5833 5831 5830 5829 5827 5826 5825 5823
5828 5830 5832 5834 5836 5837 5838 5839 5840 5840 5841 5842 5842 5842 5842 5842 5842 5841 5841 5841 5840 5839 5839 5838 5837 5837 5836 5835 5834 5833 5832 5831 5830 5830 5829 5827 5826 5825 5823 5822 5821 5819 5818
5822 5825 5827 5829 5830 5832 5833 5834 5835 5835 5836 5836 5837 5837 5836 5836 5836 5835 5835 5834 5834 5833 5832 5832 5831 5830 5829 5828 5827 5826 5825 5824 5824 5823 5823 5821 5820 5818 5817 5816 5814 5813 5812
5816 5819 5821 5823 5825 5826 5827 5828 5829 5829 5830 5830 5830 5830 5830 5829 5829 5829 5828 5827 5826 5826 5825 5824 5823 5822 5822 5821 5820 5819 5818 5817 5816 5816 5816 5815 5813 5812 5810 5809 5808 5807 5805
5810 5813 5815 5817 5818 5820 5821 5822 5823 5823 5824 5824 5824 5824 5823 5823 5822 5821 5821 5820 5819 5818 5817 5816 5815 5814 5813 5812 5811 5810 5810 5809 5808 5807 5807 5806 5806 5804 5803 5801 5800 5799 5798
5804 5807 5809 5811 5812 5813 5814 5815 5816 5817 5817 5817 5817 5816 5816 5815 5814 5813 5813 5812 5811 5810 5809 5807 5806 5805 5804 5803 5802 5801 5800 5799 5798 5797 5797 5796 5796 5795 5794 5793 5792 5790 5789
5798 5800 5802 5804 5805 5806 5807 5808 5809 5810 5810 5810 5809 5808 5808 5807 5806 5804 5804 5803 5802 5801 5799 5798 5796 5795 5794 5792 5791 5790 5790 5789 5789 5788 5786 5785 5785 5785 5784 5783 5782 5781 5780
5791 5793 5795 5796 5798 5799 5800 5801 5801 5802 5802 5802 5802 5800 5799 5797 5796 5795 5794 5793 5792 5790 5789 5788 5786 5784 5783 5781 5780 5778 5778 5778 5778 5776 5775 5774 5774 5773 5773 5773 5772 5771 5769
5784 5786 5787 5789 5790 5791 5792 5793 5793 5793 5794 5794 5793 5792 5791 5789 5787 5786 5784 5783 5781 5779 5778 5777 5775 5773 5771 5769 5767 5765 5765 5765 5765 5764 5763 5762 5761 5761 5761 5760 5760 5759 5758
5776 5778 5780 5781 5782 5783 5784 5784 5785 5785 5785 5785 5784 5783 5782 5780 5778 5776 5774 5772 5770 5768 5767 5765 5762 5760 5758 5756 5754 5753 5751 5750 5750 5750 5751 5750 5749 5749 5748 5748 5747 5747 5746
5768 5770 5771 5773 5774 5775 5776 5776 5776 5776 5776 5775 5774 5773 5772 5770 5768 5766 5763 5761 5759 5756 5754 5752 5749 5747 5744 5742 5740 5739 5737 5735 5735 5735 5736 5737 5736 5735 5735 5735 5734 5733 5732
5760 5762 5763 5765 5766 5767 5767 5767 5767 5767 5766 5765 5764 5763 5761 5759 5757 5755 5753 5750 5747 5744 5742 5739 5736 5733 5730 5727 5725 5723 5722 5721 5721 5720 5719 5721 5722 5722 5721 5721 5720 5719 5718